This is the latest recevied weather packets stored in our database for station/object W5LND-10. If no packets are shown the sender has not sent any weather packets the latest 10 day(s).
| Time | Temp. | Humidity | Pressure | Rain* | Wind** | Luminosity | Snow |
|---|---|---|---|---|---|---|---|
| 1777914973 | 27.22° C | 42% | 1007 hPa | 0 mm | - | 946 W/m² | - |
| 1777914673 | 27.22° C | 44% | 1006.9 hPa | 0 mm | - | 1021 W/m² | - |
| 1777914373 | 26.67° C | 43% | 1007 hPa | 0 mm | - | 991 W/m² | - |
| 1777914073 | 26.67° C | 44% | 1006.9 hPa | 0 mm | - | 1037 W/m² | - |
| 1777913773 | 26.67° C | 45% | 1006.9 hPa | 0 mm | - | 986 W/m² | - |
| 1777913473 | 26.11° C | 45% | 1007 hPa | 0 mm | - | 998 W/m² | - |
| 1777913173 | 26.11° C | 46% | 1006.9 hPa | 0 mm | - | 1039 W/m² | - |
| 1777912873 | 25.56° C | 47% | 1007 hPa | 0 mm | - | 932 W/m² | - |
| 1777912573 | 25° C | 48% | 1007.1 hPa | 0 mm | - | 962 W/m² | - |
| 1777912273 | 25° C | 48% | 1007.3 hPa | 0 mm | - | 851 W/m² | - |
| 1777911973 | 24.44° C | 49% | 1007.2 hPa | 0 mm | - | 809 W/m² | - |
| 1777911673 | 24.44° C | 51% | 1007.3 hPa | 0 mm | - | 904 W/m² | - |
| 1777911373 | 23.89° C | 52% | 1007.3 hPa | 0 mm | - | 904 W/m² | - |
| 1777911073 | 23.33° C | 52% | 1007.3 hPa | 0 mm | - | 886 W/m² | - |
| 1777910773 | 23.33° C | 53% | 1007.2 hPa | 0 mm | - | 749 W/m² | - |
| 1777910473 | 22.78° C | 55% | 1007.3 hPa | 0 mm | - | 879 W/m² | - |
| 1777910173 | 22.22° C | 55% | 1007.3 hPa | 0 mm | - | 879 W/m² | - |
| 1777909873 | 21.67° C | 55% | 1007.2 hPa | 0 mm | - | 380 W/m² | - |
| 1777909573 | 21.67° C | 56% | 1007.4 hPa | 0 mm | - | 346 W/m² | - |
| 1777909273 | 21.11° C | 57% | 1007.4 hPa | 0 mm | - | 411 W/m² | - |
| 1777908973 | 21.11° C | 57% | 1007.3 hPa | 0 mm | - | 399 W/m² | - |
| 1777908673 | 21.11° C | 57% | 1007.4 hPa | 0 mm | - | 462 W/m² | - |
| 1777908373 | 21.11° C | 57% | 1007.2 hPa | 0 mm | - | 492 W/m² | - |
| 1777908073 | 21.11° C | 57% | 1007.3 hPa | 0 mm | - | 334 W/m² | - |
| 1777907773 | 21.11° C | 58% | 1007.3 hPa | 0 mm | - | 255 W/m² | - |
* Rain latest hour (hover to see other rain measurements)
** Current wind speed in m/s (hover to see current wind gust speed)